{"data":{"norad_id":58683,"epoch":"2026-05-25T00:18:17.352576Z","epoch_age_seconds":80774,"freshness":"FRESH","line1":"1 58683U 23211S   26145.01270084 -.00001623  00000+0 -49499-4 0  9991","line2":"2 58683  43.0055  14.5508 0001451 285.4117  74.6575 15.27559758135402","mean_motion":15.27559758,"eccentricity":0.0001451,"inclination_deg":43.0055,"raan_deg":14.5508,"arg_perigee_deg":285.4117,"mean_anomaly_deg":74.6575,"bstar":-4.9499e-5,"rev_number":13540,"period_min":94.267997861201,"perigee_km":482.11414164158,"apogee_km":484.1052754364,"semimajor_km":6861.246708539,"source":"CELESTRAK","updated_at":"2026-05-25T13:38:18.713357Z"}}